FFL9133 KMCO-MYNN

Flight info

Callsign FFL9133
Flight time 0h 49m
Altitude 23000
Route DDANY3 JIPOD DCT JUNIP DCT ZFP BR63V ZQA
Aircraft B737/M-SDE2E3FGHIRWXY/LB1

Departure

Time 2026-04-22 16:48
Airport Orlando International Airport (KMCO)

Arrival

Time 2026-04-22 17:37
Airport Lynden Pindling International Airport (MYNN)
Time Latitude Longitude Altitude Speed Heading
2026-04-22 16:36 28.43123 -81.33070 97 ft 0 kts
2026-04-22 16:43 28.43132 -81.33067 97 ft 5 kts 19°
2026-04-22 16:43 28.43153 -81.32998 97 ft 11 kts 80°
2026-04-22 16:43 28.43201 -81.32936 98 ft 11 kts 21°
2026-04-22 16:44 28.43273 -81.32926 98 ft 11 kts
2026-04-22 16:44 28.43353 -81.32928 98 ft 13 kts 356°
2026-04-22 16:44 28.43451 -81.32931 99 ft 15 kts 358°
2026-04-22 16:44 28.43561 -81.32933 97 ft 16 kts
2026-04-22 16:45 28.43673 -81.32930 97 ft 17 kts
2026-04-22 16:45 28.43787 -81.32928 97 ft 16 kts 359°
2026-04-22 16:45 28.43897 -81.32929 99 ft 16 kts 359°
2026-04-22 16:45 28.44011 -81.32891 97 ft 20 kts 24°
2026-04-22 16:46 28.44149 -81.32864 97 ft 20 kts 358°
2026-04-22 16:46 28.44288 -81.32869 99 ft 20 kts 358°
2026-04-22 16:46 28.44424 -81.32870 99 ft 19 kts 360°
2026-04-22 16:46 28.44556 -81.32870 98 ft 19 kts
2026-04-22 16:47 28.44683 -81.32868 100 ft 18 kts
2026-04-22 16:47 28.44790 -81.32847 98 ft 10 kts 39°
2026-04-22 16:47 28.44812 -81.32801 99 ft 9 kts 77°
2026-04-22 16:47 28.44804 -81.32711 98 ft 13 kts 132°
2026-04-22 16:48 28.44706 -81.32698 100 ft 25 kts 178°
2026-04-22 16:48 28.44175 -81.32688 98 ft 128 kts 179°
2026-04-22 16:48 28.43077 -81.32661 630 ft 173 kts 172°
2026-04-22 16:48 28.41835 -81.32629 1888 ft 180 kts 174°
2026-04-22 16:49 28.40569 -81.32600 3202 ft 188 kts 173°
2026-04-22 16:49 28.39199 -81.32555 4189 ft 204 kts 172°
2026-04-22 16:49 28.37738 -81.32467 5083 ft 217 kts 171°
2026-04-22 16:49 28.36212 -81.32345 6038 ft 224 kts 171°
2026-04-22 16:50 28.34669 -81.31979 6885 ft 232 kts 145°
2026-04-22 16:50 28.33548 -81.30617 7422 ft 255 kts 111°
2026-04-22 16:50 28.33198 -81.28607 8302 ft 267 kts 94°
2026-04-22 16:50 28.33013 -81.26464 9361 ft 279 kts 94°
2026-04-22 16:51 28.32808 -81.24194 10361 ft 292 kts 94°
2026-04-22 16:51 28.32567 -81.21811 10920 ft 319 kts 95°
2026-04-22 16:51 28.32275 -81.19179 11159 ft 353 kts 96°
2026-04-22 16:51 28.31934 -81.16339 11457 ft 380 kts 96°
2026-04-22 16:52 28.31553 -81.13327 12160 ft 391 kts 96°
2026-04-22 16:52 28.31153 -81.10259 13025 ft 397 kts 96°
2026-04-22 16:52 28.30740 -81.07128 13879 ft 404 kts 96°
2026-04-22 16:52 28.30320 -81.03951 14658 ft 409 kts 96°
2026-04-22 16:53 28.29891 -81.00727 15397 ft 415 kts 97°
2026-04-22 16:53 28.29457 -80.97464 16175 ft 420 kts 97°
2026-04-22 16:53 28.29018 -80.94168 16893 ft 426 kts 97°
2026-04-22 16:53 28.28662 -80.91495 17452 ft 430 kts 97°
2026-04-22 16:54 28.28209 -80.88118 18160 ft 436 kts 98°
2026-04-22 16:54 28.27513 -80.84737 18786 ft 443 kts 107°
2026-04-22 16:54 28.26386 -80.81464 19389 ft 447 kts 112°
2026-04-22 16:54 28.25161 -80.78205 19976 ft 452 kts 113°
2026-04-22 16:55 28.23935 -80.74948 20513 ft 458 kts 112°
2026-04-22 16:55 28.22703 -80.71594 21055 ft 463 kts 112°
2026-04-22 16:55 28.21474 -80.68189 21590 ft 469 kts 112°
2026-04-22 16:55 28.20268 -80.64747 22121 ft 473 kts 111°
2026-04-22 16:56 28.19100 -80.61231 22653 ft 478 kts 110°
2026-04-22 16:56 28.17943 -80.57673 23139 ft 483 kts 110°
2026-04-22 16:56 28.16776 -80.54079 23245 ft 488 kts 110°
2026-04-22 16:56 28.15598 -80.50477 23253 ft 485 kts 110°
2026-04-22 16:57 28.14420 -80.46905 23270 ft 485 kts 110°
2026-04-22 16:57 28.13228 -80.43310 23257 ft 485 kts 110°
2026-04-22 16:57 28.12040 -80.39736 23281 ft 485 kts 110°
2026-04-22 16:57 28.10792 -80.36249 23265 ft 485 kts 116°
2026-04-22 16:58 28.09638 -80.34006 23276 ft 484 kts 125°
2026-04-22 16:58 28.06732 -80.30195 23268 ft 482 kts 139°
2026-04-22 16:58 28.04079 -80.27913 23274 ft 479 kts 149°
2026-04-22 16:58 28.01256 -80.25878 23269 ft 479 kts 150°
2026-04-22 16:59 27.98434 -80.23883 23264 ft 479 kts 150°
2026-04-22 16:59 27.95715 -80.21694 23262 ft 482 kts 141°
2026-04-22 16:59 27.93272 -80.19092 23280 ft 482 kts 139°
2026-04-22 16:59 27.90747 -80.16613 23269 ft 481 kts 142°
2026-04-22 17:00 27.88130 -80.14238 23273 ft 481 kts 144°
2026-04-22 17:00 27.82853 -80.09580 23259 ft 481 kts 144°
2026-04-22 17:00 27.80258 -80.07266 23267 ft 481 kts 143°
2026-04-22 17:01 27.77646 -80.04908 23257 ft 481 kts 143°
2026-04-22 17:01 27.75036 -80.02528 23263 ft 482 kts 143°
2026-04-22 17:01 27.72439 -80.00148 23270 ft 482 kts 143°
2026-04-22 17:01 27.69831 -79.97750 23268 ft 482 kts 143°
2026-04-22 17:02 27.67233 -79.95360 23269 ft 482 kts 143°
2026-04-22 17:02 27.64635 -79.92971 23271 ft 482 kts 143°
2026-04-22 17:02 27.62024 -79.90573 23261 ft 482 kts 143°
2026-04-22 17:02 27.59433 -79.88196 23263 ft 482 kts 143°
2026-04-22 17:03 27.56854 -79.85833 23265 ft 482 kts 143°
2026-04-22 17:03 27.54247 -79.83446 23266 ft 482 kts 143°
2026-04-22 17:03 27.51653 -79.81073 23261 ft 482 kts 143°
2026-04-22 17:03 27.49047 -79.78690 23265 ft 482 kts 143°
2026-04-22 17:04 27.46444 -79.76313 23262 ft 482 kts 143°
2026-04-22 17:04 27.43837 -79.73931 23263 ft 482 kts 143°
2026-04-22 17:04 27.41232 -79.71554 23264 ft 482 kts 143°
2026-04-22 17:04 27.38653 -79.69203 23263 ft 482 kts 143°
2026-04-22 17:05 27.36041 -79.66821 23266 ft 482 kts 143°
2026-04-22 17:05 27.33430 -79.64444 23265 ft 482 kts 143°
2026-04-22 17:05 27.30819 -79.62067 23259 ft 483 kts 143°
2026-04-22 17:05 27.28203 -79.59687 23259 ft 483 kts 143°
2026-04-22 17:06 27.25594 -79.57315 23262 ft 483 kts 143°
2026-04-22 17:06 27.22984 -79.54944 23265 ft 483 kts 143°
2026-04-22 17:06 27.20370 -79.52570 23262 ft 483 kts 143°
2026-04-22 17:06 27.17753 -79.50195 23266 ft 483 kts 143°
2026-04-22 17:07 27.15223 -79.47901 23260 ft 483 kts 143°
2026-04-22 17:07 27.12633 -79.45553 23263 ft 483 kts 143°
2026-04-22 17:07 27.10015 -79.43181 23262 ft 483 kts 143°
2026-04-22 17:07 27.07394 -79.40808 23257 ft 483 kts 143°
2026-04-22 17:08 27.04777 -79.38441 23256 ft 483 kts 143°
2026-04-22 17:08 27.02164 -79.36079 23257 ft 483 kts 143°
2026-04-22 17:08 26.99539 -79.33707 23257 ft 483 kts 143°
2026-04-22 17:08 26.96917 -79.31339 23257 ft 483 kts 143°
2026-04-22 17:09 26.94297 -79.28975 23262 ft 484 kts 143°
2026-04-22 17:09 26.91675 -79.26610 23253 ft 484 kts 143°
2026-04-22 17:09 26.89939 -79.25045 23257 ft 484 kts 143°
2026-04-22 17:09 26.86432 -79.21885 23254 ft 484 kts 143°
2026-04-22 17:10 26.83859 -79.19569 23256 ft 483 kts 143°
2026-04-22 17:10 26.81233 -79.17206 23255 ft 484 kts 143°
2026-04-22 17:10 26.78616 -79.14853 23252 ft 484 kts 143°
2026-04-22 17:10 26.75983 -79.12487 23253 ft 484 kts 143°
2026-04-22 17:11 26.73359 -79.10131 23253 ft 484 kts 143°
2026-04-22 17:11 26.70737 -79.07777 23253 ft 484 kts 143°
2026-04-22 17:11 26.68107 -79.05418 23253 ft 484 kts 143°
2026-04-22 17:11 26.65479 -79.03063 23251 ft 484 kts 143°
2026-04-22 17:12 26.63735 -79.01500 23251 ft 484 kts 143°
2026-04-22 17:12 26.61146 -78.99182 23253 ft 484 kts 143°
2026-04-22 17:12 26.57659 -78.96061 23251 ft 484 kts 143°
2026-04-22 17:12 26.55034 -78.93714 23255 ft 484 kts 144°
2026-04-22 17:13 26.52401 -78.91361 23255 ft 484 kts 144°
2026-04-22 17:13 26.50625 -78.89774 23252 ft 484 kts 144°
2026-04-22 17:13 26.48026 -78.87454 23253 ft 484 kts 144°
2026-04-22 17:13 26.45407 -78.85117 23253 ft 484 kts 144°
2026-04-22 17:14 26.42764 -78.82759 23258 ft 484 kts 144°
2026-04-22 17:14 26.40138 -78.80419 23254 ft 484 kts 144°
2026-04-22 17:14 26.37506 -78.78076 23252 ft 484 kts 144°
2026-04-22 17:14 26.34871 -78.75729 23248 ft 484 kts 144°
2026-04-22 17:15 26.33128 -78.74179 23247 ft 484 kts 144°
2026-04-22 17:15 26.29605 -78.71047 23244 ft 484 kts 144°
2026-04-22 17:15 26.26966 -78.68702 23245 ft 484 kts 144°
2026-04-22 17:15 26.24370 -78.66396 23244 ft 484 kts 144°
2026-04-22 17:16 26.21734 -78.64057 23238 ft 484 kts 144°
2026-04-22 17:16 26.19095 -78.61717 23242 ft 484 kts 144°
2026-04-22 17:16 26.16466 -78.59386 23236 ft 484 kts 144°
2026-04-22 17:16 26.13828 -78.57049 23238 ft 484 kts 144°
2026-04-22 17:17 26.11202 -78.54723 23236 ft 483 kts 144°
2026-04-22 17:17 26.08557 -78.52383 23232 ft 483 kts 144°
2026-04-22 17:17 26.05930 -78.50059 23223 ft 474 kts 144°
2026-04-22 17:17 26.03412 -78.47829 23216 ft 450 kts 144°
2026-04-22 17:18 26.01032 -78.45720 23073 ft 429 kts 144°
2026-04-22 17:18 25.98749 -78.43702 22523 ft 421 kts 144°
2026-04-22 17:18 25.96473 -78.41693 22009 ft 405 kts 144°
2026-04-22 17:18 25.94328 -78.39801 21506 ft 392 kts 144°
2026-04-22 17:19 25.90185 -78.36153 20518 ft 370 kts 144°
2026-04-22 17:19 25.86248 -78.32689 19571 ft 355 kts 144°
2026-04-22 17:20 25.82395 -78.29302 18515 ft 352 kts 144°
2026-04-22 17:20 25.78576 -78.25948 17230 ft 347 kts 143°
2026-04-22 17:21 25.76695 -78.24296 16597 ft 343 kts 143°
2026-04-22 17:21 25.73023 -78.21072 15395 ft 335 kts 143°
2026-04-22 17:22 25.69400 -78.17893 14227 ft 328 kts 143°
2026-04-22 17:22 25.67617 -78.16331 13604 ft 325 kts 142°
2026-04-22 17:22 25.64099 -78.13249 12337 ft 318 kts 142°
2026-04-22 17:23 25.62371 -78.11735 11727 ft 315 kts 142°
2026-04-22 17:23 25.58969 -78.08758 10538 ft 309 kts 141°
2026-04-22 17:23 25.57316 -78.07312 10113 ft 301 kts 141°
2026-04-22 17:24 25.55691 -78.05891 9674 ft 296 kts 141°
2026-04-22 17:24 25.54079 -78.04482 9242 ft 293 kts 141°
2026-04-22 17:24 25.52486 -78.03090 8812 ft 289 kts 141°
2026-04-22 17:24 25.50919 -78.01721 8387 ft 285 kts 141°
2026-04-22 17:25 25.49434 -78.00285 7959 ft 281 kts 134°
2026-04-22 17:25 25.48122 -77.98711 7556 ft 276 kts 130°
2026-04-22 17:25 25.46864 -77.97120 7150 ft 273 kts 130°
2026-04-22 17:25 25.45625 -77.95547 6746 ft 269 kts 130°
2026-04-22 17:26 25.44395 -77.94001 6325 ft 266 kts 130°
2026-04-22 17:26 25.43177 -77.92482 5894 ft 261 kts 130°
2026-04-22 17:26 25.41975 -77.90994 5512 ft 258 kts 130°
2026-04-22 17:26 25.40780 -77.89522 5145 ft 256 kts 130°
2026-04-22 17:27 25.39606 -77.88079 4778 ft 255 kts 129°
2026-04-22 17:27 25.38424 -77.86629 4404 ft 253 kts 129°
2026-04-22 17:27 25.37248 -77.85186 4029 ft 251 kts 129°
2026-04-22 17:27 25.36084 -77.83765 3760 ft 246 kts 128°
2026-04-22 17:28 25.34952 -77.82381 3502 ft 240 kts 128°
2026-04-22 17:28 25.33846 -77.81032 3246 ft 234 kts 127°
2026-04-22 17:28 25.32762 -77.79709 3066 ft 232 kts 127°
2026-04-22 17:28 25.31685 -77.78395 3009 ft 230 kts 127°
2026-04-22 17:29 25.30612 -77.77087 2996 ft 228 kts 127°
2026-04-22 17:29 25.29836 -77.76140 2995 ft 228 kts 127°
2026-04-22 17:29 25.28795 -77.74869 2998 ft 231 kts 127°
2026-04-22 17:29 25.27714 -77.73552 3003 ft 232 kts 128°
2026-04-22 17:30 25.26629 -77.72231 3000 ft 232 kts 128°
2026-04-22 17:30 25.25568 -77.70939 3012 ft 227 kts 127°
2026-04-22 17:30 25.24506 -77.69645 3017 ft 229 kts 127°
2026-04-22 17:30 25.23452 -77.68363 3012 ft 217 kts 127°
2026-04-22 17:31 25.22480 -77.67187 2988 ft 199 kts 127°
2026-04-22 17:31 25.21577 -77.66091 2988 ft 190 kts 126°
2026-04-22 17:31 25.20684 -77.65002 2998 ft 191 kts 126°
2026-04-22 17:31 25.19797 -77.63935 3013 ft 187 kts 127°
2026-04-22 17:32 25.18913 -77.62916 3000 ft 186 kts 127°
2026-04-22 17:32 25.18016 -77.61904 2998 ft 180 kts 128°
2026-04-22 17:32 25.17171 -77.60964 2997 ft 165 kts 127°
2026-04-22 17:32 25.16388 -77.60090 3029 ft 156 kts 127°
2026-04-22 17:33 25.15894 -77.59540 2957 ft 148 kts 127°
2026-04-22 17:33 25.14950 -77.58487 2746 ft 141 kts 126°
2026-04-22 17:33 25.14263 -77.57718 2573 ft 141 kts 125°
2026-04-22 17:33 25.13569 -77.56942 2395 ft 142 kts 125°
2026-04-22 17:34 25.12876 -77.56168 2216 ft 142 kts 125°
2026-04-22 17:34 25.12183 -77.55396 2012 ft 140 kts 125°
2026-04-22 17:34 25.11512 -77.54649 1840 ft 137 kts 124°
2026-04-22 17:34 25.10843 -77.53901 1652 ft 134 kts 124°
2026-04-22 17:35 25.10203 -77.53202 1448 ft 129 kts 123°
2026-04-22 17:35 25.09594 -77.52475 1266 ft 128 kts 121°
2026-04-22 17:35 25.08970 -77.51786 1101 ft 127 kts 124°
2026-04-22 17:35 25.08342 -77.51100 953 ft 127 kts 123°
2026-04-22 17:36 25.07732 -77.50384 793 ft 129 kts 125°
2026-04-22 17:36 25.07118 -77.49730 656 ft 131 kts 127°
2026-04-22 17:36 25.06491 -77.49016 476 ft 126 kts 127°
2026-04-22 17:36 25.05878 -77.48342 289 ft 124 kts 126°
2026-04-22 17:37 25.05277 -77.47679 70 ft 120 kts 128°
2026-04-22 17:37 25.04728 -77.47068 25 ft 102 kts 125°
2026-04-22 17:37 25.04324 -77.46603 19 ft 58 kts 135°
2026-04-22 17:37 25.04132 -77.46393 16 ft 21 kts 130°
2026-04-22 17:38 25.04125 -77.46318 17 ft 9 kts 95°
2026-04-22 17:38 25.04110 -77.46250 19 ft 10 kts 111°
2026-04-22 17:38 25.04118 -77.46176 16 ft 12 kts 23°
2026-04-22 17:38 25.04192 -77.46216 16 ft 13 kts 309°
2026-04-22 17:39 25.04259 -77.46287 17 ft 14 kts 317°
2026-04-22 17:39 25.04335 -77.46373 16 ft 17 kts 313°
2026-04-22 17:39 25.04504 -77.46362 16 ft 13 kts 34°
2026-04-22 17:40 25.04545 -77.46361 16 ft 0 kts 347°